Home   Weather   St. Petersburg   Past weeks
Flag for USA

Past Weather in St. Petersburg, Florida, USA — Yesterday and Last 2 Weeks

Now
71 °F

Mostly cloudy.


Feels Like: 74 °F
Forecast: 72 / 61 °F
Wind: 8 mph from Northwest

Location: Whitted Airport

Current Time: Dec 14, 2019 at 11:47:20 am

Latest Report: Dec 14, 2019 at 10:53 am


Visibility: 10 mi

Pressure: 29.85 "Hg

Humidity: 71%

Dew Point: 61 °F

Location of St. PetersburgLocation

Past Weather in St. Petersburg — Graph

°F

St. Petersburg Temperature Yesterday

Maximum temperature yesterday: 72 °F (at 1:53 pm)
Minimum temperature yesterday: 68 °F (at 2:53 am)
Average temperature yesterday: 70 °F

High & Low Weather Summary for the Past Weeks

 TemperatureHumidityPressure
High81 °F (Dec 10, 1:53 pm)100% (Dec 11, 4:53 am)30.27 "Hg (Dec 11, 4:53 am)
Low51 °F (Dec 3, 7:53 am)37% (Dec 6, 3:53 pm)29.72 "Hg (Dec 14, 4:53 am)
Average68 °F77%30.05 "Hg
* Reported Nov 29 9:53 am — Dec 14 9:53 am, St. Petersburg. Weather by CustomWeather, © 2019

Note: Actual official high and low records may vary slightly from our data, if they occured in-between our weather recording intervals... More about our weather records

St. Petersburg Weather History for the Previous 24 Hours

Scroll right to see more
 ConditionsComfort  
Time TempWeatherWind HumidityBarometerVisibility
9:53 am
Sat, Dec 14
70 °FPartly sunny.3 mph73%29.84 "Hg10 mi
8:53 am69 °FSunny.5 mph81%29.80 "Hg10 mi
8:02 am68 °FScattered clouds.7 mph87%29.78 "Hg10 mi
7:26 am70 °FPartly sunny.7 mph90%29.77 "Hg10 mi
6:53 am71 °FOvercast.9 mph90%29.75 "Hg10 mi
6:07 am73 °FRain. Fog.16 mph90%29.74 "Hg5 mi
4:53 am73 °FPassing clouds.7 mph88%29.72 "Hg10 mi
3:53 am73 °FPassing clouds.9 mph90%29.75 "Hg10 mi
3:27 am73 °FPassing clouds.9 mph94%29.74 "Hg10 mi
2:53 am73 °FClear.10 mph90%29.75 "Hg10 mi
1:53 am72 °FClear.8 mph91%29.75 "Hg10 mi
12:53 am72 °FPassing clouds.6 mph93%29.79 "Hg10 mi
12:29 am72 °FPassing clouds.6 mph93%29.79 "Hg10 mi
11:53 pm
Fri, Dec 13
72 °FMostly cloudy.8 mph93%29.79 "Hg10 mi
11:42 pm72 °FMostly cloudy.7 mph93%29.79 "Hg10 mi
11:21 pm72 °FPartly cloudy.7 mph93%29.79 "Hg10 mi
10:53 pm71 °FPassing clouds.10 mph96%29.77 "Hg10 mi
9:53 pm72 °FPassing clouds.7 mph93%29.80 "Hg10 mi
9:15 pm71 °FPassing clouds.9 mph93%29.81 "Hg10 mi
8:53 pm72 °FClear.10 mph91%29.81 "Hg10 mi
7:53 pm71 °FClear.15 mph93%29.80 "Hg10 mi
6:53 pm70 °FPassing clouds.6 mph93%29.82 "Hg10 mi
5:53 pm71 °FClear.7 mph84%29.82 "Hg10 mi
4:53 pm70 °FSunny.8 mph93%29.83 "Hg10 mi
3:53 pm71 °FLight rain. Scattered clouds.9 mph87%29.83 "Hg10 mi
2:53 pm72 °FSunny.6 mph84%29.88 "Hg10 mi
1:53 pm72 °FPartly sunny.No wind84%29.89 "Hg10 mi
12:53 pm71 °FPassing clouds.No wind90%29.92 "Hg10 mi
11:53 am70 °FSunny.5 mph93%29.96 "Hg10 mi
Weather by CustomWeather, © 2019

See weather overview

Advertising